Hourly Data Report for January 19, 2003

TORONTO CITY
ONTARIO

43°40'00.000" N
79°24'00.000" W
112.50 m
6158355
71508
XTO

Download Data

Hourly Data (January 2003)
Hourly Data Report for January 19, 2003
TIME
LST
Temp Definition
°C
Dew Point Definition
°C
Rel Hum Definition
%
Precip. Amount Definition
mm

Wind Dir Definition
10's deg

Wind Spd Definition
km/h
Visibility Definition
km
Stn Press Definition
kPa
Hmdx Definition


Wind Chill Definition


Weather Definition


00:00 -7.7 -12.5 68     0 LegendMM 99.47     LegendNANA
01:00
02:00 -8.4 -12.6 72     0 LegendMM 99.41     LegendNANA
03:00 -8.4 -12.5 72     0 LegendMM 99.42     LegendNANA
04:00 -8.4 -12.1 75     0 LegendMM 99.39     LegendNANA
05:00 -8.4 -12.0 75     0 LegendMM 99.38     LegendNANA
06:00 -8.6 -12.0 76     0 LegendMM 99.41     LegendNANA
07:00 -8.3 -12.0 75     0 LegendMM 99.47     LegendNANA
08:00 -8.6 -12.3 75     0 LegendMM 99.50     LegendNANA
09:00 -8.3 -12.5 72     0 LegendMM 99.57     LegendNANA
10:00 -7.1 -12.5 65     0 LegendMM 99.59     LegendNANA
11:00 -6.2 -13.9 54     0 LegendMM 99.56     LegendNANA
12:00 -6.0 -14.1 53     0 LegendMM 99.47     LegendNANA
13:00 -5.8 -14.2 51     0 LegendMM 99.40     LegendNANA
14:00 -6.0 -13.7 54     0 LegendMM 99.31     LegendNANA
15:00 -5.6 -12.9 56     0 LegendMM 99.24     LegendNANA
16:00 -5.5 -11.7 62     0 LegendMM 99.12     LegendNANA
17:00
18:00 -6.7 -12.9 61     0 LegendMM 98.97     LegendNANA
19:00 -6.7 -12.7 62     0 LegendMM 98.91     LegendNANA
20:00 -7.7 -9.9 84     0 LegendMM 98.84     LegendNANA
21:00 -7.6 -9.2 88     0 LegendMM 98.76     LegendNANA
22:00 -7.4 -9.1 88     0 LegendMM 98.67     LegendNANA
23:00                      

Notes on Data Quality.

Legend

  • E = Estimated
  • M = Missing
  • NA = Not Available*
  • [empty] = Indicates an unobserved value
Date modified: